Ogallala, NE

7:54 PM MDT on August 17, 2017 (GMT -0600)
Searle

Weather History for KOGA - December, 2013

Change the Weather History Date:

Saturday, December 7, 2013

  Actual Average Record
Temperature  
Mean Temperature 4 °F -  
Max Temperature 10 °F 40 °F 62 °F (2003)
Min Temperature -3 °F 15 °F -15 °F (1972)
Degree Days  
Heating Degree Days 62    
Moisture  
Dew Point -2 °F    
Average Humidity 70    
Maximum Humidity 80    
Minimum Humidity 60    
Precipitation  
Precipitation 0.00 in - - ()
Sea Level Pressure  
Sea Level Pressure 30.23 in    
Wind  
Wind Speed 10 mph (SE)    
Max Wind Speed 18 mph    
Max Gust Speed 23 mph    
Visibility 9 miles    
Events Snow    
Averages and records for this station are not official NWS values.
T = Trace of Precipitation, MM = Missing Value Source: NWS Daily Summary

Daily Weather History Graph

Daily Weather History Graph

Search for Another Location

Airport or City:

Trip Planner

Search our weather history database for the weather conditions in past years. The results will help you decide how hot, cold, wet, or windy it might be!

Date:

Astronomy

Dec. 07, 2013 Rise Set
Actual Time 6:59 AM MST 4:18 PM MST
Civil Twilight 6:28 AM MST 4:49 PM MST
Nautical Twilight 5:53 AM MST 5:23 PM MST
Astronomical Twilight 5:20 AM MST 5:57 PM MST
Moon 10:43 AM MST (12/7) 10:04 PM MST (12/7)
Length of Visible Light 10h 21m
Length of Day
9h 19m
Waxing Crescent, 30% of the Moon is Illuminated
Dec 7
Waxing Crescent
Dec 9
First Quarter
Dec 17
Full
Dec 25
Last Quarter
Jan 1
New

Hourly Weather History & Observations

Time (MST) Temp. Windchill Dew Point Humidity Pressure Visibility Wind Dir Wind Speed Gust Speed Precip Events Conditions
12:15 AM -1.1 °F -14.3 °F -8.1 °F 72% 30.42 in 10.0 mi East 6.9 mph - N/A   Clear
12:35 AM -1.3 °F -13.1 °F -8.1 °F 73% 30.41 in 10.0 mi East 5.8 mph - N/A   Clear
12:55 AM -1.3 °F -14.5 °F -8.5 °F 72% 30.41 in 10.0 mi East 6.9 mph - N/A   Clear
1:15 AM -1.7 °F -13.5 °F -8.5 °F 73% 30.41 in 10.0 mi East 5.8 mph - N/A   Clear
1:35 AM -2.4 °F -14.4 °F -8.7 °F 75% 30.41 in 10.0 mi East 5.8 mph - N/A   Clear
1:55 AM -2.7 °F -16.2 °F -9.2 °F 74% 30.40 in 10.0 mi East 6.9 mph - N/A   Clear
2:15 AM -2.6 °F -12.9 °F -8.9 °F 74% 30.40 in 10.0 mi East 4.6 mph - N/A   Clear
2:35 AM -2.6 °F -14.6 °F -8.9 °F 74% 30.40 in 10.0 mi East 5.8 mph - N/A   Clear
2:55 AM -3.1 °F -15.2 °F -9.0 °F 76% 30.40 in 10.0 mi East 5.8 mph - N/A   Clear
3:15 AM -3.1 °F -15.2 °F -8.9 °F 76% 30.39 in 10.0 mi East 5.8 mph - N/A   Clear
3:35 AM -2.6 °F -16.0 °F -8.5 °F 76% 30.38 in 10.0 mi ESE 6.9 mph - N/A   Clear
3:55 AM -1.3 °F -14.5 °F -8.1 °F 73% 30.37 in 10.0 mi East 6.9 mph - N/A   Clear
4:15 AM -1.3 °F -14.5 °F -8.5 °F 72% 30.37 in 10.0 mi East 6.9 mph - N/A   Clear
4:35 AM -1.3 °F -14.5 °F -8.1 °F 73% 30.36 in 10.0 mi East 6.9 mph - N/A   Clear
4:55 AM -0.8 °F -15.1 °F -7.8 °F 72% 30.36 in 10.0 mi East 8.1 mph - N/A   Scattered Clouds
5:15 AM -0.0 °F -13.0 °F -7.4 °F 71% 30.36 in 10.0 mi East 6.9 mph - N/A   Mostly Cloudy
5:35 AM 0.3 °F -9.5 °F -6.7 °F 72% 30.36 in 10.0 mi East 4.6 mph - N/A   Overcast
5:55 AM 1.8 °F -5.8 °F -6.0 °F 70% 30.37 in 10.0 mi SSE 3.5 mph - N/A   Overcast
6:15 AM 2.3 °F -12.4 °F -5.8 °F 69% 30.36 in 10.0 mi SSE 9.2 mph - N/A   Overcast
6:35 AM 2.8 °F -13.5 °F -5.6 °F 68% 30.36 in 10.0 mi SSE 11.5 mph 18.4 mph N/A   Overcast
6:55 AM 3.2 °F -14.6 °F -5.4 °F 67% 30.35 in 10.0 mi SSE 13.8 mph 19.6 mph N/A   Overcast
7:15 AM 3.4 °F -15.7 °F -5.3 °F 67% 30.35 in 10.0 mi SSE 16.1 mph 21.9 mph N/A   Overcast
7:35 AM 4.1 °F -13.4 °F -4.9 °F 66% 30.34 in 10.0 mi SSE 13.8 mph 21.9 mph N/A   Overcast
7:55 AM 4.5 °F -13.0 °F -4.7 °F 66% 30.34 in 10.0 mi SSE 13.8 mph 20.7 mph N/A   Overcast
8:15 AM 4.8 °F -13.2 °F -4.4 °F 66% 30.34 in 10.0 mi SSE 15.0 mph 21.9 mph N/A   Overcast
8:35 AM 5.2 °F -13.9 °F -4.2 °F 65% 30.34 in 10.0 mi SSE 17.3 mph 21.9 mph N/A   Overcast
8:55 AM 5.5 °F -12.3 °F -4.0 °F 65% 30.33 in 10.0 mi SSE 15.0 mph 20.7 mph N/A   Overcast
9:15 AM 6.4 °F -11.7 °F -3.5 °F 64% 30.33 in 10.0 mi SSE 16.1 mph 20.7 mph N/A   Overcast
9:35 AM 7.7 °F -10.7 °F -2.9 °F 62% 30.33 in 10.0 mi SSE 17.3 mph 21.9 mph N/A   Mostly Cloudy
9:55 AM 7.7 °F -10.7 °F -3.1 °F 61% 30.34 in 10.0 mi SSE 17.3 mph - N/A   Overcast
10:15 AM 7.7 °F -11.2 °F -3.1 °F 61% 30.33 in 10.0 mi SSE 18.4 mph 23.0 mph N/A   Overcast
10:35 AM 7.7 °F -10.7 °F -3.3 °F 61% 30.32 in 10.0 mi South 17.3 mph 21.9 mph N/A   Overcast
10:55 AM 8.1 °F -7.0 °F -2.9 °F 61% 30.30 in 10.0 mi SSE 11.5 mph 20.7 mph N/A   Overcast
11:15 AM 8.1 °F -10.2 °F -3.1 °F 60% 30.28 in 10.0 mi SSE 17.3 mph 23.0 mph N/A   Overcast
11:35 AM 8.8 °F -8.7 °F -2.2 °F 61% 30.26 in 10.0 mi SSE 16.1 mph 20.7 mph N/A   Mostly Cloudy
11:55 AM 8.6 °F -9.5 °F -0.2 °F 67% 30.25 in 3.0 mi SSE 17.3 mph 21.9 mph N/A Snow Light Snow
12:15 PM 8.6 °F -8.3 °F 0.5 °F 70% 30.23 in 4.0 mi SSE 15.0 mph 21.9 mph N/A Snow Light Snow
12:35 PM 8.4 °F -8.6 °F 1.8 °F 74% 30.21 in 1.5 mi SE 15.0 mph 18.4 mph N/A Snow Light Snow
12:55 PM 8.6 °F -8.9 °F 0.3 °F 69% 30.20 in 7.0 mi SE 16.1 mph 21.9 mph N/A Snow Light Snow
1:15 PM 9.1 °F -7.7 °F -0.0 °F 66% 30.18 in 10.0 mi SSE 15.0 mph 19.6 mph N/A   Overcast
1:35 PM 10.4 °F -5.4 °F 0.5 °F 64% 30.16 in 10.0 mi SE 13.8 mph 20.7 mph N/A   Overcast
1:55 PM 10.2 °F -6.9 °F -0.6 °F 62% 30.15 in 10.0 mi SE 16.1 mph 23.0 mph N/A   Overcast
2:15 PM 10.9 °F -5.4 °F -0.4 °F 60% 30.14 in 10.0 mi SE 15.0 mph 19.6 mph N/A   Overcast
2:35 PM 10.4 °F -5.4 °F -0.8 °F 61% 30.14 in 10.0 mi SSE 13.8 mph 18.4 mph N/A   Overcast
2:55 PM 10.4 °F -6.0 °F -0.6 °F 61% 30.13 in 10.0 mi SE 15.0 mph - N/A   Overcast
3:15 PM 10.0 °F -5.2 °F -1.3 °F 60% 30.13 in 10.0 mi SSE 12.7 mph 20.7 mph N/A   Overcast
3:35 PM 9.7 °F -7.5 °F -0.6 °F 63% 30.13 in 10.0 mi SSE 16.1 mph - N/A   Overcast
3:55 PM 9.0 °F -7.9 °F -0.0 °F 67% 30.13 in 10.0 mi SE 15.0 mph 20.7 mph N/A Snow Light Snow
4:15 PM 8.4 °F -9.2 °F 1.2 °F 73% 30.12 in 4.0 mi SSE 16.1 mph 19.6 mph N/A Snow Light Snow
4:35 PM 7.9 °F -8.0 °F 0.9 °F 73% 30.12 in 7.0 mi SE 12.7 mph 19.6 mph N/A Snow Light Snow
4:55 PM 7.7 °F -6.6 °F 1.2 °F 75% 30.12 in 5.0 mi SE 10.4 mph - N/A Snow Light Snow
5:15 PM 7.5 °F -9.1 °F 0.1 °F 72% 30.12 in 7.0 mi SE 13.8 mph - N/A   Overcast
5:35 PM 7.7 °F -8.2 °F 0.5 °F 72% 30.12 in 10.0 mi SE 12.7 mph 17.3 mph N/A Snow Light Snow
5:55 PM 7.7 °F -7.4 °F 0.7 °F 73% 30.11 in 10.0 mi SE 11.5 mph 16.1 mph N/A Snow Light Snow
6:15 PM 8.1 °F -7.7 °F 0.3 °F 71% 30.11 in 10.0 mi SE 12.7 mph 17.3 mph N/A   Overcast
6:35 PM 7.7 °F -8.9 °F 0.3 °F 72% 30.11 in 10.0 mi SE 13.8 mph 18.4 mph N/A   Overcast
6:55 PM 7.7 °F -7.4 °F 0.3 °F 72% 30.10 in 10.0 mi ESE 11.5 mph 16.1 mph N/A   Overcast
7:15 PM 7.7 °F -7.4 °F 0.5 °F 72% 30.11 in 10.0 mi SE 11.5 mph 17.3 mph N/A   Overcast
7:35 PM 7.5 °F -6.0 °F 0.9 °F 74% 30.10 in 10.0 mi SE 9.2 mph 12.7 mph N/A   Overcast
7:55 PM 7.3 °F -7.1 °F 1.2 °F 76% 30.09 in 7.0 mi SE 10.4 mph - N/A   Overcast
8:15 PM 7.3 °F -5.2 °F 1.8 °F 78% 30.08 in 7.0 mi SE 8.1 mph 18.4 mph N/A   Overcast
8:35 PM 7.3 °F -7.9 °F 2.3 °F 80% 30.07 in 7.0 mi SE 11.5 mph 16.1 mph N/A   Overcast
8:55 PM 7.7 °F -7.4 °F 2.3 °F 79% 30.06 in 7.0 mi SE 11.5 mph - N/A   Overcast
9:15 PM 7.7 °F -7.4 °F 2.5 °F 79% 30.05 in 7.0 mi SE 11.5 mph - N/A   Overcast
9:35 PM 8.1 °F -7.7 °F 2.7 °F 79% 30.05 in 7.0 mi SE 12.7 mph 17.3 mph N/A   Overcast
9:55 PM 8.1 °F -7.7 °F 2.5 °F 78% 30.04 in 7.0 mi SE 12.7 mph - N/A   Overcast
10:15 PM 8.2 °F -7.5 °F 2.7 °F 78% 30.03 in 7.0 mi SE 12.7 mph - N/A Snow Light Snow
10:35 PM 8.1 °F -6.2 °F 2.5 °F 78% 30.03 in 7.0 mi SSE 10.4 mph - N/A Snow Light Snow
10:55 PM 8.2 °F -6.0 °F 3.0 °F 79% 30.02 in 5.0 mi SE 10.4 mph - N/A Snow Light Snow
11:15 PM 8.2 °F -5.1 °F 3.0 °F 79% 30.02 in 7.0 mi SSE 9.2 mph - N/A Snow Light Snow
11:35 PM 8.2 °F -6.8 °F 3.2 °F 80% 30.01 in 4.0 mi SE 11.5 mph - N/A Snow Light Snow
11:55 PM 8.1 °F -6.2 °F 3.0 °F 80% 29.99 in 5.0 mi SSE 10.4 mph - N/A Snow Light Snow